Location: Napier
(39.4830°S, 176.9170°E)
Time: 03:16:20
(UTC+12:00)

Atlas Centaur 2 - Pass Details

Date: 15 August 2020
Orbit: 459 x 1310 km, 30.4° (Epoch: 19 September)

Event Time Altitude Azimuth Distance (km) Brightness Sun altitude
Rises 18:01:43 0° 282° (WNW) 3,014 8.0 -5.9°
Reaches altitude 10° 18:05:26 10° 309° (NW) 1,918 5.3 -6.6°
Maximum altitude 18:07:27 13° 337° (NNW) 1,643 4.3 -7.0°
Drops below altitude 10° 18:09:20 10° 5° (N) 1,756 4.0 -7.4°
Sets 18:12:26 0° 34° (NE) 2,541 4.5 -8.0°
